Location: Marcé
(47.5801°N, 0.3280°W)
Time: 20:29:12
(UTC+01:00)

Vanguard 3 - Pass Details

Date: 11 December 2021
Orbit: 508 x 3260 km, 33.3° (Epoch: 17 January)

Event Time Altitude Azimuth Distance (km) Brightness Sun altitude
Rises 07:31:32 0° 273° (W) 7,176 - -10.9°
Exits shadow 07:34:35 - 269° (W) 6,618 11.2 -10.4°
Reaches altitude 10° 07:36:53 10° 266° (W) 6,202 11.1 -10.1°
Maximum altitude 07:53:33 37° 210° (SSW) 3,952 10.6 -7.5°
Drops below altitude 10° 08:06:22 10° 150° (SSE) 4,785 12.1 -5.6°
Sets 08:09:54 0° 142° (SE) 5,437 12.9 -5.1°
